Regional Weather Roundup
Issued by NWS

Home | Current Version | Previous Version | Text Only | Print | Product List | Glossary On
Versions: 1 2 3 4 5 6 7 8 9 10 11 12 13 14 15 16 17 18 19 20 21 22 23 24 25 26 27 28 29 30 31 32 33 34 35 36 37 38 39 40 41 42 43 44 45 46 47 48 49 50
000
ASUS43 KDTX 220610
RWRMI
MICHIGAN HOURLY REGIONAL WEATHER ROUNDUP
NATIONAL WEATHER SERVICE DETROIT/PONTIAC MI
100 AM EST THU FEB 22 2018

NOTE: "FAIR" INDICATES FEW OR NO CLOUDS BELOW 12,000 FEET WITH NO
SIGNIFICANT WEATHER AND/OR OBSTRUCTION TO VISIBILITY.

MIZ047>049-052>055-059>063-066>070-074>076-081>083-220700-
SOUTHEAST LOWER MICHIGAN

CITY           SKY/WX    TMP DP  RH WIND       PRES   REMARKS
ADRIAN         CLOUDY    32  29  88 E8        30.62R WCI  25
6HR MIN TEMP:  32; 6HR MAX TEMP:  36;

ALMA           FAIR      29  24  81 NE6       30.65F WCI  23
6HR MIN TEMP:  29; 6HR MAX TEMP:  32;

ANN ARBOR      FAIR      31  28  89 NE8       30.61S WCI  23
BAD AXE        FAIR      26  23  90 CALM      30.68R
6HR MIN TEMP:  25; 6HR MAX TEMP:  28;

CARO           FAIR      28  25  90 E3        30.67R
DETROIT CITY   FAIR      30  24  78 NE8       30.65S WCI  22
6HR MIN TEMP:  30; 6HR MAX TEMP:  32;

DETROIT        CLOUDY    32  26  78 NE9       30.64R WCI  24
6HR MIN TEMP:  32; 6HR MAX TEMP:  36;

FLINT          FAIR      30  27  88 E8        30.64S WCI  22
6HR MIN TEMP:  30; 6HR MAX TEMP:  34;

GROSSE ILE     FAIR      31  27  85 NE13      30.63R WCI  21
6HR MIN TEMP:  31; 6HR MAX TEMP:  33;

HILLSDALE      MOCLDY    32  28  86 NE7       30.57F WCI  26
HOWELL         FAIR      31  28  90 E3        30.62S
6HR MIN TEMP:  31; 6HR MAX TEMP:  33;


CITY           SKY/WX    TMP DP  RH WIND       PRES   REMARKS
JACKSON        FAIR      32  28  85 NE8       30.59F WCI  25
6HR MIN TEMP:  32; 6HR MAX TEMP:  35;

LAMBERTVILLE   MOCLDY    32  29  89 NE6       30.61F WCI  26
6HR MIN TEMP:  32; 6HR MAX TEMP:  35;

LANSING        FAIR      30  26  85 NE6       30.63F WCI  24
6HR MIN TEMP:  30; 6HR MAX TEMP:  34;

LAPEER         CLOUDY    29  26  87 E5        30.66R WCI  24
6HR MIN TEMP:  29; 6HR MAX TEMP:  33;

MASON          FAIR      33  27  80 NE5       30.61F WCI  28
6HR MIN TEMP:  33; 6HR MAX TEMP:  35;

MONROE         FAIR      32  27  84 NE7       30.62S WCI  25
6HR MIN TEMP:  32; 6HR MAX TEMP:  35;

MT. CLEMENS    FAIR      29  29  99 NE7       30.65S WCI  22
6HR MIN TEMP:  29; 6HR MAX TEMP:  31;

PONTIAC        CLOUDY    29  26  89 NE8       30.62S WCI  21
6HR MIN TEMP:  29; 6HR MAX TEMP:  35;

PORT HOPE        N/A     29  21  72 NE9       30.67S WCI  20
6HR MIN TEMP:  28; 6HR MAX TEMP:  29;

PORT HURON     CLOUDY    28  23  80 NE6       30.68S WCI  22
TRI CITIES     FAIR      30  26  85 NE6       30.66S WCI  24
6HR MIN TEMP:  30; 6HR MAX TEMP:  34;

MIDLAND        FAIR      28  26  91 CALM      30.66F
6HR MIN TEMP:  28; 6HR MAX TEMP:  32;

TROY           MOCLDY    31  26  83 NE8       30.67S WCI  23
SAGINAW HB     FAIR      30  28  93 E7        30.66S WCI  23
$$
MIZ043>046-050>051-056>058-064>065-071>073-077>080-220700-
SOUTHWEST LOWER MICHIGAN

CITY           SKY/WX    TMP DP  RH WIND       PRES   REMARKS
BATTLE CREEK   FAIR      31  27  85 NE7       30.59F WCI  24
6HR MIN TEMP:  31; 6HR MAX TEMP:  33;

BENTON HARBOR  FAIR      29  23  78 NE6       30.59F WCI  23
6HR MIN TEMP:  29; 6HR MAX TEMP:  30;

BIG RAPIDS     FAIR      24  18  77 CALM      30.63F
6HR MIN TEMP:  24; 6HR MAX TEMP:  29;

COLDWATER      FAIR      33  32  96 NE9       30.58F WCI  25
6HR MIN TEMP:  32; 6HR MAX TEMP:  34;

FREMONT        FAIR      24  16  70 NE5       30.63F WCI  18
6HR MIN TEMP:  24; 6HR MAX TEMP:  28;

HOLLAND        FAIR      28  22  78 NE6       30.62F WCI  22
6HR MIN TEMP:  28; 6HR MAX TEMP:  30;

GRAND RAPIDS   FAIR      28  22  78 NE7       30.62F WCI  21
6HR MIN TEMP:  28; 6HR MAX TEMP:  33;

IONIA          FAIR      30  24  77 NE7       30.62F WCI  23
6HR MIN TEMP:  30; 6HR MAX TEMP:  33;

KALAMAZOO      FAIR      32  26  78 NE6       30.59F WCI  26
6HR MIN TEMP:  31; 6HR MAX TEMP:  34;

LUDINGTON      FAIR      22  19  87 CALM      30.65F
6HR MIN TEMP:  22; 6HR MAX TEMP:  23;

MARSHALL       FAIR      32  28  86 NE3       30.59F
6HR MIN TEMP:  31; 6HR MAX TEMP:  33;

MOUNT PLEASANT FAIR      29  21  73 NE5       30.65S WCI  24
6HR MIN TEMP:  29; 6HR MAX TEMP:  33;

MUSKEGON       FAIR      25  18  74 NE6       30.64F WCI  18
6HR MIN TEMP:  25; 6HR MAX TEMP:  28;

SOUTH HAVEN    FAIR      29  24  83 NE7       30.60F WCI  22
$$
MIZ016>042-220700-
NORTHERN LOWER MICHIGAN

CITY           SKY/WX    TMP DP  RH WIND       PRES   REMARKS
ALPENA         FAIR      21  18  88 CALM      30.69S
6HR MIN TEMP:  21; 6HR MAX TEMP:  24;

BEAVER ISLAND  FAIR      15  13  92 CALM      30.69R
6HR MIN TEMP:  15; 6HR MAX TEMP:  22;

BELLAIRE       FAIR      19  19  99 CALM      30.69S
6HR MIN TEMP:  19; 6HR MAX TEMP:  24;

CADILLAC       FAIR      20  17  87 NE3       30.61F
CHARLEVOIX     FAIR      19  18  97 CALM      30.70S
6HR MIN TEMP:  19; 6HR MAX TEMP:  24;

FRANKFORT      FAIR      21  18  88 CALM      30.67S
GAYLORD        FAIR      18  17  96 S3        30.63S
6HR MIN TEMP:  18; 6HR MAX TEMP:  22;

GRAYLING       FAIR      19  17  93 CALM      30.64S
6HR MIN TEMP:  19; 6HR MAX TEMP:  24;

HARBOR SPRINGS FAIR      16  14  93 CALM      30.67S
HOUGHTON LAKE  FAIR      22  17  81 N5        30.65S WCI  16
6HR MIN TEMP:  22; 6HR MAX TEMP:  27;

MANISTEE       FAIR      19  16  88 E5        30.67S WCI  12
OSCODA         FAIR      24  19  80 N5        30.69S WCI  19
6HR MIN TEMP:  22; 6HR MAX TEMP:  28;

PELLSTON       FAIR      13  10  88 CALM      30.68F
6HR MIN TEMP:  13; 6HR MAX TEMP:  22;

ROGERS CITY    FAIR      19  16  85 CALM      30.69F
TRAVERSE CITY  FAIR      22  17  81 SE5       30.67S WCI  16
6HR MIN TEMP:  22; 6HR MAX TEMP:  26;

$$
MIZ007>008-015-220700-
EASTERN UPPER MICHIGAN

CITY           SKY/WX    TMP DP  RH WIND       PRES   REMARKS
KINROSS        FAIR      11   9  92 S3        30.68R
6HR MIN TEMP:  10; 6HR MAX TEMP:  19; 6HR PCP: TRACE;

MACKINAC ISLAN FAIR      15  13  92 CALM      30.67S
6HR MIN TEMP:  15; 6HR MAX TEMP:  21;

NEWBERRY       FAIR       9   8  97 CALM      30.66R
6HR MIN TEMP:   6; 6HR MAX TEMP:  19;

S. S. MARIE    FAIR      13   8  81 CALM      30.68R
6HR MIN TEMP:  12; 6HR MAX TEMP:  22; 6HR PCP: TRACE;

MUNISING         N/A      6   4  91 S7        30.67R WCI  -6
6HR MIN TEMP:   5; 6HR MAX TEMP:  17;

$$
MIZ004>006-011>014-085-220700-
CENTRAL UPPER MICHIGAN

CITY           SKY/WX    TMP DP  RH WIND       PRES   REMARKS
MANISTIQUE     FAIR       9   7  95 CALM      30.68R
6HR MIN TEMP:   8; 6HR MAX TEMP:  22;

ESCANABA       FAIR      12   8  84 W5        30.68R WCI   4
6HR MIN TEMP:   7; 6HR MAX TEMP:  19;

MENOMINEE      FAIR      16  10  77 NW3       30.67S
6HR MIN TEMP:  16; 6HR MAX TEMP:  21;

SAWYER-GWINN   FAIR       2  -2  84 CALM      30.62F
6HR MIN TEMP:   1; 6HR MAX TEMP:  17;

$$
MIZ001>003-009>011-084-220700-
WESTERN UPPER MICHIGAN

CITY           SKY/WX    TMP DP  RH WIND       PRES   REMARKS
IRON MOUNTAIN  FAIR       6   0  76 CALM      30.63R
6HR MIN TEMP:   4; 6HR MAX TEMP:  23;

HOUGHTON       FAIR       9   1  70 CALM      30.60R
6HR MIN TEMP:   2; 6HR MAX TEMP:  13;

COPPER HARBOR    N/A     12   6  77 SW6       30.63R WCI   3
6HR MIN TEMP:  11; 6HR MAX TEMP:  19;

IRONWOOD       FAIR       8   2  76 SW5       30.63R WCI   0
6HR MIN TEMP:   3; 6HR MAX TEMP:  17;

$$

ABBREVIATIONS USED IN REMARKS
   TC - TEMPERATURE IN CELSIUS
  WCI - WIND CHILL INDEX
   HX - HEAT INDEX
  VSB - VISIBILITY





USA.gov is the U.S. government's official web portal to all federal, state and local government web resources and services.